Location: Baumgartsau
(48.4586°N, 14.0864°E)
Time: 13:41:16
(UTC+00:00)

Cosmos 2341 Rocket - Pass Details

Date: 09 April 2020
Orbit: 969 x 1004 km, 82.9° (Epoch: 23 May)

Event Time Altitude Azimuth Distance (km) Brightness Sun altitude
Rises 18:57:52 0° 352° (N) 3,736 7.6 -11.9°
Reaches altitude 10° 19:00:26 10° 355° (N) 2,785 6.8 -12.3°
Maximum altitude 19:06:50 69° 79° (ENE) 1,073 4.1 -13.2°
Drops below altitude 10° 19:13:11 10° 162° (SSE) 2,771 5.9 -14.2°
Enters shadow 19:13:28 - 163° (SSE) 2,879 6.0 -14.2°
